Date String (YYYY-MM-DD hh:mm:ss) UTC,Instrument flags,absolute air pressure of the measurement (hPa),sample flow rate (lpm),inlet stack bypass flow (lpm),air temperature of the measurement (°C),ambient temperature measured by the external sensor (°C),aerosol sample conditioner tube jacket temperature (°C),OPC LED temperature (°C),internal box temperature (°C),relative humidity of the measurement (%),span deviation,mass concentration of particles derived from Lorenz-Mie calculation of OPC scattering (μg/m³),mass concentration of particles derived from Lorenz-Mie calculation of OPC scattering (μg/m³),mass concentration of particles derived from Lorenz-Mie calculation of OPC scattering (μg/m³)
DateTimeUTC,F1_M11,P_M11,Q1_M11,Q2_M11,T1_M11,T2_M11,T3_M11,T4_M11,T5_M11,U1_M11,ZSPAN_M11,X2_M11,X0_M11,X1_M11
2023-12-22 20:00:00,SystemResetWarning,0829.1,4.99,000.00,026.7,023.9,000.0,034.8,028.1,12.0,0000.0,0003.63,0006.20,0003.30
2023-12-22 20:01:00,SystemResetWarning,0829.1,5.00,000.00,026.5,022.5,000.0,034.7,027.8,12.2,0000.0,0003.63,0006.40,0003.31
2023-12-22 20:02:00,SystemResetWarning,0829.1,5.01,000.00,026.4,022.4,000.0,034.7,027.4,12.3,0000.0,0003.67,0006.72,0003.32
2023-12-22 20:03:00,SystemResetWarning,0829.0,5.01,000.00,026.2,022.8,000.0,034.6,027.0,12.5,0000.0,0003.69,0006.82,0003.34
2023-12-22 20:04:00,SystemResetWarning,0829.0,5.00,000.00,026.1,023.2,000.0,034.6,027.1,12.6,0000.0,0003.70,0006.91,0003.34
2023-12-22 20:05:00,SystemResetWarning,0829.0,5.00,000.00,026.1,023.6,000.0,034.5,027.2,12.6,0000.0,0003.72,0007.11,0003.34
2023-12-22 20:06:00,SystemResetWarning,0829.0,5.00,000.00,026.1,023.9,000.0,034.5,027.3,12.6,0000.0,0003.72,0007.71,0003.35
2023-12-22 20:07:00,SystemResetWarning,0828.9,5.00,000.00,026.1,024.2,000.0,034.4,027.3,12.6,0000.0,0003.73,0008.13,0003.37
2023-12-22 20:08:00,SystemResetWarning,0828.9,5.00,000.00,026.1,024.5,000.0,034.4,027.4,12.7,0000.0,0003.74,0008.64,0003.39
2023-12-22 20:09:00,SystemResetWarning,0828.9,4.99,000.00,026.1,024.7,000.0,034.4,027.5,12.7,0000.0,0003.75,0008.82,0003.41
2023-12-22 20:10:00,SystemResetWarning,0828.9,5.00,000.00,026.1,024.8,000.0,034.4,027.5,12.6,0000.0,0003.77,0008.86,0003.44
2023-12-22 20:11:00,SystemResetWarning,0828.9,5.00,000.00,026.1,024.9,000.0,034.4,027.5,12.7,0000.0,0003.79,0008.55,0003.46
2023-12-22 20:12:00,SystemResetWarning,0828.9,5.00,000.00,026.1,025.0,000.0,034.4,027.6,12.8,0000.0,0003.85,0008.57,0003.48
2023-12-22 20:13:00,SystemResetWarning,0829.0,5.00,000.00,026.1,025.1,000.0,034.4,027.6,12.7,0000.0,0003.86,0008.45,0003.51
2023-12-22 20:14:00,SystemResetWarning,0829.0,5.00,000.00,026.2,025.2,000.0,034.4,027.6,12.6,0000.0,0003.88,0008.47,0003.53
2023-12-22 20:15:00,SystemResetWarning,0829.0,5.00,000.00,026.2,025.3,000.0,034.4,027.7,12.6,0000.0,0003.89,0009.04,0003.56
2023-12-22 20:16:00,SystemResetWarning,0829.0,5.00,000.00,026.2,025.4,000.0,034.4,027.7,12.6,0000.0,0003.90,0009.27,0003.59
2023-12-22 20:17:00,SystemResetWarning,0829.0,5.00,000.00,026.2,025.4,000.0,034.4,027.7,12.6,0000.0,0003.94,0009.38,0003.62
2023-12-22 20:18:00,SystemResetWarning,0828.9,5.00,000.00,026.3,025.5,000.0,034.4,027.8,12.3,0000.0,0003.96,0009.06,0003.64
2023-12-22 20:19:00,SystemResetWarning,0828.8,5.01,000.00,026.3,025.5,000.0,034.4,027.8,12.3,0000.0,0004.00,0008.87,0003.66
2023-12-22 20:20:00,SystemResetWarning,0828.8,5.00,000.00,026.3,025.6,000.0,034.5,027.8,12.4,0000.0,0004.04,0008.82,0003.67
2023-12-22 20:21:00,SystemResetWarning,0828.8,5.00,000.00,026.4,025.6,000.0,034.5,027.8,11.9,0000.0,0004.06,0008.87,0003.69
2023-12-22 20:22:00,SystemResetWarning,0828.8,5.00,000.00,026.4,025.6,000.0,034.5,027.9,11.7,0000.0,0004.08,0008.89,0003.72
2023-12-22 20:23:00,SystemResetWarning,0828.8,5.00,000.00,026.4,025.7,000.0,034.5,027.9,11.8,0000.0,0004.06,0009.00,0003.74
2023-12-22 20:24:00,SystemResetWarning,0828.7,5.00,000.00,026.4,025.7,000.0,034.5,027.9,11.9,0000.0,0004.06,0009.18,0003.75
2023-12-22 20:25:00,SystemResetWarning,0828.8,5.00,000.00,026.4,025.7,000.0,034.5,027.9,11.8,0000.0,0004.10,0009.42,0003.76
2023-12-22 20:26:00,SystemResetWarning,0828.7,5.00,000.00,026.5,025.7,000.0,034.6,027.9,11.9,0000.0,0004.18,0009.54,0003.78
2023-12-22 20:27:00,SystemResetWarning,0828.7,5.00,000.00,026.5,024.9,000.0,034.6,028.0,11.8,0000.0,0004.23,0009.24,0003.81
2023-12-22 20:28:00,SystemResetWarning,0828.6,5.00,000.00,026.4,022.8,000.0,034.5,027.7,11.8,0000.0,0004.30,0008.91,0003.86
2023-12-22 20:29:00,SystemResetWarning,0828.6,5.01,000.00,026.3,021.9,000.0,034.5,027.4,11.9,0000.0,0004.36,0008.70,0003.91
2023-12-22 20:30:00,SystemResetWarning,0828.6,5.02,000.00,026.1,022.0,000.0,034.4,026.9,12.1,0000.0,0004.41,0008.57,0003.95
2023-12-22 20:31:00,SystemResetWarning,0828.6,5.00,000.00,025.9,022.5,000.0,034.3,026.7,12.1,0000.0,0004.43,0008.60,0004.00
2023-12-22 20:32:00,SystemResetWarning,0828.6,5.00,000.00,025.9,022.9,000.0,034.3,026.8,12.2,0000.0,0004.46,0009.15,0004.03
2023-12-22 20:33:00,SystemResetWarning,0828.6,4.99,000.00,025.8,023.3,000.0,034.3,026.9,12.2,0000.0,0004.53,0009.16,0004.05
2023-12-22 20:34:00,SystemResetWarning,0828.6,5.00,000.00,025.8,023.7,000.0,034.2,027.0,12.3,0000.0,0004.60,0009.19,0004.10
2023-12-22 20:35:00,SystemResetWarning,0828.6,5.00,000.00,025.8,024.0,000.0,034.2,027.1,12.2,0000.0,0004.66,0009.15,0004.15
2023-12-22 20:36:00,SystemResetWarning,0828.6,5.00,000.00,025.8,024.2,000.0,034.2,027.2,12.2,0000.0,0004.71,0009.14,0004.19
2023-12-22 20:37:00,SystemResetWarning,0828.6,5.00,000.00,025.8,024.4,000.0,034.2,027.3,12.4,0000.0,0004.77,0008.81,0004.25
2023-12-22 20:38:00,SystemResetWarning,0828.6,4.99,000.00,025.9,024.6,000.0,034.2,027.3,12.3,0000.0,0004.84,0008.85,0004.30
2023-12-22 20:39:00,SystemResetWarning,0828.6,4.99,000.00,025.9,024.7,000.0,034.1,027.4,12.2,0000.0,0004.86,0008.93,0004.32
2023-12-22 20:40:00,SystemResetWarning,0828.6,5.00,000.00,025.9,024.8,000.0,034.2,027.4,12.2,0000.0,0004.87,0009.21,0004.33
2023-12-22 20:41:00,SystemResetWarning,0828.6,5.01,000.00,026.0,025.0,000.0,034.2,027.5,12.1,0000.0,0004.91,0009.22,0004.36
2023-12-22 20:42:00,SystemResetWarning,0828.6,5.01,000.00,026.0,025.1,000.0,034.2,027.5,12.2,0000.0,0004.93,0009.50,0004.38
2023-12-22 20:43:00,SystemResetWarning,0828.6,5.01,000.00,026.0,025.1,000.0,034.2,027.6,12.1,0000.0,0004.98,0009.45,0004.41
2023-12-22 20:44:00,SystemResetWarning,0828.6,5.00,000.00,026.1,025.2,000.0,034.2,027.6,12.1,0000.0,0004.99,0009.57,0004.44
2023-12-22 20:45:00,SystemResetWarning,0828.6,4.99,000.00,026.1,025.3,000.0,034.2,027.6,12.0,0000.0,0004.98,0009.54,0004.47
2023-12-22 20:46:00,SystemResetWarning,0828.6,4.99,000.00,026.1,025.3,000.0,034.2,027.7,12.0,0000.0,0004.98,0009.94,0004.50
2023-12-22 20:47:00,SystemResetWarning,0828.5,4.99,000.00,026.2,025.4,000.0,034.2,027.7,12.1,0000.0,0005.01,0010.10,0004.53
2023-12-22 20:48:00,SystemResetWarning,0828.6,5.00,000.00,026.2,025.5,000.0,034.3,027.8,12.1,0000.0,0005.00,0010.00,0004.55
2023-12-22 20:49:00,SystemResetWarning,0828.6,5.01,000.00,026.2,025.5,000.0,034.3,027.8,12.0,0000.0,0004.97,0009.91,0004.55
2023-12-22 20:50:00,SystemResetWarning,0828.5,5.00,000.00,026.3,025.6,000.0,034.3,027.9,12.0,0000.0,0004.96,0010.10,0004.56
2023-12-22 20:51:00,SystemResetWarning,0828.5,5.00,000.00,026.3,025.6,000.0,034.3,027.9,12.0,0000.0,0005.00,0010.31,0004.60
2023-12-22 20:52:00,SystemResetWarning,0828.5,4.98,000.00,026.3,025.5,000.0,034.4,027.9,12.0,0000.0,0005.01,0010.66,0004.64
2023-12-22 20:53:00,SystemResetWarning,0828.4,5.00,000.00,026.3,023.9,000.0,034.4,027.9,11.9,0000.0,0005.02,0010.50,0004.66
2023-12-22 20:54:00,SystemResetWarning,0828.4,5.01,000.00,026.2,022.8,000.0,034.4,027.7,11.8,0000.0,0005.04,0010.05,0004.68
2023-12-22 20:55:00,SystemResetWarning,0828.4,5.01,000.00,026.1,022.9,000.0,034.3,027.2,11.9,0000.0,0005.08,0010.18,0004.69
2023-12-22 20:56:00,SystemResetWarning,0828.4,5.00,000.00,026.0,023.2,000.0,034.3,027.0,12.0,0000.0,0005.09,0010.33,0004.70
2023-12-22 20:57:00,SystemResetWarning,0828.4,5.00,000.00,026.0,023.5,000.0,034.3,027.1,12.0,0000.0,0005.11,0009.93,0004.71
2023-12-22 20:58:00,SystemResetWarning,0828.3,5.00,000.00,026.0,023.9,000.0,034.2,027.2,12.0,0000.0,0005.09,0009.54,0004.71
2023-12-22 20:59:00,SystemResetWarning,0828.3,5.00,000.00,025.9,024.1,000.0,034.2,027.3,12.0,0000.0,0005.08,0009.51,0004.71
